KQA2748 HKJK-FWKI

Flight info

Callsign KQA2748
Flight time N/A
Altitude 36000
Route ATUDU1D LOSIN UM315 IMKAL DCT UTOKO UTOKO1A
Aircraft B738/M-SDE2E3FGHIRWXY/LB1

Departure

Time N/A
Airport Jomo Kenyatta International Airport (HKJK)

Arrival

Time 2026-04-17 11:39
Airport Kamuzu International Airport (FWKI)
Time Latitude Longitude Altitude Speed Heading
2026-04-17 09:53 -2.00417 36.75005 23201 ft 442 kts 208°
2026-04-17 09:53 -2.03117 36.73504 23535 ft 444 kts 208°
2026-04-17 09:53 -2.05829 36.71996 23848 ft 446 kts 208°
2026-04-17 09:53 -2.08544 36.70487 24148 ft 447 kts 208°
2026-04-17 09:54 -2.11267 36.68973 24440 ft 448 kts 208°
2026-04-17 09:54 -2.13997 36.67456 24739 ft 449 kts 208°
2026-04-17 09:54 -2.16733 36.65935 25026 ft 451 kts 208°
2026-04-17 09:54 -2.19475 36.64410 25302 ft 452 kts 208°
2026-04-17 09:55 -2.22236 36.62876 25566 ft 454 kts 208°
2026-04-17 09:55 -2.25005 36.61336 25828 ft 455 kts 208°
2026-04-17 09:55 -2.27782 36.59792 26077 ft 457 kts 208°
2026-04-17 09:55 -2.30566 36.58244 26331 ft 458 kts 208°
2026-04-17 09:56 -2.33326 36.56709 26568 ft 460 kts 208°
2026-04-17 09:56 -2.36134 36.55147 26806 ft 462 kts 208°
2026-04-17 09:56 -2.38951 36.53581 27041 ft 464 kts 208°
2026-04-17 09:56 -2.41773 36.52012 27271 ft 465 kts 208°
2026-04-17 09:57 -2.44606 36.50436 27513 ft 466 kts 208°
2026-04-17 09:57 -2.47447 36.48856 27740 ft 468 kts 208°
2026-04-17 09:57 -2.50297 36.47270 27968 ft 469 kts 208°
2026-04-17 09:57 -2.53160 36.45678 28199 ft 470 kts 208°
2026-04-17 09:58 -2.56022 36.44086 28431 ft 471 kts 208°
2026-04-17 09:58 -2.58892 36.42489 28652 ft 472 kts 208°
2026-04-17 09:58 -2.61774 36.40886 28858 ft 473 kts 208°
2026-04-17 09:58 -2.64658 36.39281 29069 ft 474 kts 208°
2026-04-17 09:59 -2.67510 36.37694 29268 ft 475 kts 208°
2026-04-17 09:59 -2.70402 36.36085 29482 ft 476 kts 208°
2026-04-17 09:59 -2.73301 36.34472 29697 ft 476 kts 208°
2026-04-17 09:59 -2.76207 36.32855 29919 ft 477 kts 208°
2026-04-17 10:00 -2.79109 36.31239 30186 ft 476 kts 208°
2026-04-17 10:00 -2.82004 36.29628 30448 ft 474 kts 208°
2026-04-17 10:00 -2.84850 36.28043 30700 ft 473 kts 208°
2026-04-17 10:00 -2.87728 36.26441 30933 ft 472 kts 208°
2026-04-17 10:01 -2.90597 36.24844 31170 ft 471 kts 208°
2026-04-17 10:01 -2.93464 36.23248 31423 ft 470 kts 208°
2026-04-17 10:01 -2.96322 36.21657 31687 ft 469 kts 208°
2026-04-17 10:01 -2.99178 36.20066 31960 ft 468 kts 208°
2026-04-17 10:02 -3.02029 36.18479 32240 ft 467 kts 208°
2026-04-17 10:02 -3.04829 36.16919 32503 ft 466 kts 209°
2026-04-17 10:02 -3.07668 36.15338 32781 ft 465 kts 209°
2026-04-17 10:02 -3.10493 36.13782 33046 ft 464 kts 206°
2026-04-17 10:03 -3.13471 36.12537 33299 ft 463 kts 198°
2026-04-17 10:03 -3.16593 36.11725 33548 ft 463 kts 189°
2026-04-17 10:03 -3.19760 36.11346 33804 ft 462 kts 186°
2026-04-17 10:03 -3.22951 36.11006 34038 ft 462 kts 187°
2026-04-17 10:04 -3.26152 36.10641 34266 ft 461 kts 187°
2026-04-17 10:04 -3.29354 36.10256 34465 ft 461 kts 187°
2026-04-17 10:04 -3.31469 36.09994 34589 ft 461 kts 187°
2026-04-17 10:04 -3.34662 36.09594 34783 ft 461 kts 187°
2026-04-17 10:05 -3.38883 36.09061 35037 ft 461 kts 188°
2026-04-17 10:05 -3.41041 36.08788 35167 ft 461 kts 188°
2026-04-17 10:05 -3.44183 36.08392 35353 ft 461 kts 188°
2026-04-17 10:05 -3.47375 36.07991 35547 ft 461 kts 188°
2026-04-17 10:06 -3.50565 36.07590 35732 ft 461 kts 188°
2026-04-17 10:06 -3.53752 36.07189 35901 ft 461 kts 188°
2026-04-17 10:06 -3.56938 36.06790 36086 ft 461 kts 188°
2026-04-17 10:06 -3.60096 36.06393 36130 ft 463 kts 188°
2026-04-17 10:07 -3.66502 36.05588 36135 ft 462 kts 188°
2026-04-17 10:07 -3.72883 36.04798 36129 ft 460 kts 187°
2026-04-17 10:08 -3.79196 36.04030 36120 ft 458 kts 187°
2026-04-17 10:08 -3.85526 36.03261 36116 ft 456 kts 187°
2026-04-17 10:09 -3.91842 36.02490 36118 ft 456 kts 187°
2026-04-17 10:09 -3.98159 36.01718 36115 ft 456 kts 187°
2026-04-17 10:10 -4.04441 36.00951 36114 ft 457 kts 188°
2026-04-17 10:11 -4.13966 35.99787 36111 ft 459 kts 188°
2026-04-17 10:11 -4.20297 35.99013 36112 ft 461 kts 188°
2026-04-17 10:12 -4.26689 35.98231 36109 ft 462 kts 188°
2026-04-17 10:12 -4.33084 35.97449 36106 ft 463 kts 188°
2026-04-17 10:13 -4.39495 35.96665 36104 ft 463 kts 188°
2026-04-17 10:13 -4.45865 35.95886 36106 ft 463 kts 188°
2026-04-17 10:14 -4.52281 35.95097 36099 ft 463 kts 188°
2026-04-17 10:14 -4.58682 35.94299 36098 ft 462 kts 188°
2026-04-17 10:15 -4.65073 35.93502 36098 ft 461 kts 188°
2026-04-17 10:15 -4.71412 35.92712 36095 ft 460 kts 188°
2026-04-17 10:16 -4.77787 35.91918 36088 ft 460 kts 188°
2026-04-17 10:16 -4.84143 35.91127 36092 ft 459 kts 188°
2026-04-17 10:17 -4.90452 35.90341 36084 ft 459 kts 188°
2026-04-17 10:17 -4.96805 35.89549 36079 ft 458 kts 188°
2026-04-17 10:18 -5.03114 35.88763 36074 ft 458 kts 188°
2026-04-17 10:18 -5.09455 35.87973 36066 ft 458 kts 188°
2026-04-17 10:19 -5.15792 35.87183 36062 ft 458 kts 188°
2026-04-17 10:19 -5.22133 35.86393 36058 ft 458 kts 188°
2026-04-17 10:20 -5.28480 35.85601 36056 ft 459 kts 188°
2026-04-17 10:20 -5.34788 35.84814 36053 ft 459 kts 188°
2026-04-17 10:21 -5.41150 35.84021 36044 ft 460 kts 188°
2026-04-17 10:21 -5.47521 35.83228 36043 ft 460 kts 188°
2026-04-17 10:22 -5.53857 35.82439 36037 ft 460 kts 188°
2026-04-17 10:22 -5.60242 35.81643 36033 ft 461 kts 188°
2026-04-17 10:23 -5.66581 35.80854 36035 ft 461 kts 188°
2026-04-17 10:23 -5.72928 35.80077 36036 ft 461 kts 188°
2026-04-17 10:24 -5.79309 35.79300 36030 ft 461 kts 188°
2026-04-17 10:24 -5.85687 35.78521 36029 ft 461 kts 188°
2026-04-17 10:25 -5.92059 35.77741 36030 ft 460 kts 188°
2026-04-17 10:25 -5.98393 35.76966 36028 ft 460 kts 188°
2026-04-17 10:26 -6.04766 35.76186 36023 ft 460 kts 188°
2026-04-17 10:26 -6.11100 35.75410 36026 ft 460 kts 188°
2026-04-17 10:27 -6.17460 35.74600 36016 ft 459 kts 192°
2026-04-17 10:27 -6.23637 35.73179 36019 ft 458 kts 196°
2026-04-17 10:28 -6.29801 35.71563 36011 ft 457 kts 196°
2026-04-17 10:28 -6.35970 35.69969 36017 ft 457 kts 196°
2026-04-17 10:29 -6.42151 35.68412 36004 ft 457 kts 195°
2026-04-17 10:29 -6.48293 35.66881 36005 ft 456 kts 195°
2026-04-17 10:30 -6.54465 35.65345 36000 ft 456 kts 195°
2026-04-17 10:30 -6.60592 35.63819 36003 ft 455 kts 195°
2026-04-17 10:31 -6.66747 35.62285 35996 ft 455 kts 195°
2026-04-17 10:31 -6.72871 35.60757 35991 ft 455 kts 195°
2026-04-17 10:32 -6.79033 35.59220 35991 ft 454 kts 195°
2026-04-17 10:32 -6.85144 35.57695 35983 ft 454 kts 196°
2026-04-17 10:33 -6.91284 35.56162 35975 ft 454 kts 196°
2026-04-17 10:33 -6.97391 35.54638 35977 ft 454 kts 196°
2026-04-17 10:34 -7.03535 35.53103 35973 ft 453 kts 196°
2026-04-17 10:34 -7.09673 35.51570 35973 ft 453 kts 196°
2026-04-17 10:35 -7.15756 35.50050 35966 ft 453 kts 196°
2026-04-17 10:35 -7.21876 35.48520 35968 ft 453 kts 196°
2026-04-17 10:36 -7.27999 35.46989 35965 ft 453 kts 196°
2026-04-17 10:36 -7.34097 35.45464 35962 ft 453 kts 196°
2026-04-17 10:37 -7.40227 35.43931 35960 ft 453 kts 196°
2026-04-17 10:37 -7.46352 35.42398 35965 ft 452 kts 196°
2026-04-17 10:38 -7.52432 35.40877 35965 ft 452 kts 196°
2026-04-17 10:38 -7.58543 35.39346 35971 ft 452 kts 196°
2026-04-17 10:39 -7.64631 35.37822 35977 ft 452 kts 195°
2026-04-17 10:39 -7.70755 35.36288 35967 ft 452 kts 195°
2026-04-17 10:40 -7.76884 35.34752 35984 ft 452 kts 195°
2026-04-17 10:40 -7.82967 35.33227 35982 ft 452 kts 196°
2026-04-17 10:41 -7.89090 35.31691 35991 ft 452 kts 196°
2026-04-17 10:41 -7.94180 35.30415 35995 ft 452 kts 196°
2026-04-17 10:42 -8.00312 35.28876 36000 ft 452 kts 196°
2026-04-17 10:42 -8.06442 35.27338 36008 ft 452 kts 196°
2026-04-17 10:43 -8.12515 35.25813 36008 ft 452 kts 196°
2026-04-17 10:43 -8.18624 35.24279 36003 ft 451 kts 196°
2026-04-17 10:44 -8.24721 35.22747 36013 ft 451 kts 196°
2026-04-17 10:44 -8.30771 35.21227 36006 ft 450 kts 196°
2026-04-17 10:45 -8.36855 35.19698 36015 ft 450 kts 195°
2026-04-17 10:45 -8.42928 35.18170 36000 ft 449 kts 195°
2026-04-17 10:46 -8.49004 35.16642 36007 ft 448 kts 195°
2026-04-17 10:46 -8.55027 35.15126 36008 ft 448 kts 195°
2026-04-17 10:47 -8.61084 35.13603 36018 ft 447 kts 195°
2026-04-17 10:47 -8.67143 35.12087 36008 ft 447 kts 195°
2026-04-17 10:48 -8.73161 35.10582 36010 ft 447 kts 195°
2026-04-17 10:48 -8.79203 35.09070 36014 ft 447 kts 195°
2026-04-17 10:49 -8.85242 35.07557 36008 ft 447 kts 195°
2026-04-17 10:49 -8.91254 35.06050 36019 ft 447 kts 195°
2026-04-17 10:50 -8.97263 35.04544 36010 ft 447 kts 195°
2026-04-17 10:50 -9.03309 35.03028 36011 ft 446 kts 195°
2026-04-17 10:51 -9.09340 35.01515 36012 ft 446 kts 195°
2026-04-17 10:51 -9.15345 35.00008 36017 ft 446 kts 195°
2026-04-17 10:52 -9.21381 34.98492 36018 ft 446 kts 195°
2026-04-17 10:52 -9.27383 34.96985 36018 ft 446 kts 195°
2026-04-17 10:53 -9.33409 34.95465 36026 ft 445 kts 196°
2026-04-17 10:53 -9.39384 34.93921 36021 ft 445 kts 196°
2026-04-17 10:54 -9.45394 34.92357 36016 ft 445 kts 196°
2026-04-17 10:54 -9.51395 34.90799 36026 ft 445 kts 196°
2026-04-17 10:55 -9.57393 34.89244 36019 ft 444 kts 196°
2026-04-17 10:55 -9.63361 34.87697 36008 ft 444 kts 196°
2026-04-17 10:56 -9.69353 34.86142 36012 ft 444 kts 195°
2026-04-17 10:56 -9.75341 34.84588 36005 ft 444 kts 195°
2026-04-17 10:57 -9.81290 34.83044 36002 ft 444 kts 195°
2026-04-17 10:57 -9.87291 34.81486 35991 ft 444 kts 195°
2026-04-17 10:58 -9.93285 34.79929 35980 ft 444 kts 195°
2026-04-17 10:58 -9.99244 34.78381 35978 ft 444 kts 195°
2026-04-17 10:59 -10.05227 34.76825 35972 ft 443 kts 195°
2026-04-17 10:59 -10.11199 34.75272 35966 ft 443 kts 195°
2026-04-17 11:00 -10.17184 34.73715 35958 ft 443 kts 195°
2026-04-17 11:00 -10.23130 34.72168 35953 ft 443 kts 195°
2026-04-17 11:01 -10.29102 34.70613 35944 ft 443 kts 195°
2026-04-17 11:01 -10.35068 34.69059 35939 ft 443 kts 195°
2026-04-17 11:02 -10.41050 34.67500 35941 ft 442 kts 195°
2026-04-17 11:02 -10.46980 34.65954 35933 ft 442 kts 195°
2026-04-17 11:03 -10.52941 34.64399 35939 ft 442 kts 195°
2026-04-17 11:03 -10.58912 34.62867 35938 ft 442 kts 194°
2026-04-17 11:04 -10.64903 34.61428 35930 ft 442 kts 194°
2026-04-17 11:04 -10.70855 34.60010 35933 ft 441 kts 194°
2026-04-17 11:05 -10.76829 34.58574 35945 ft 440 kts 194°
2026-04-17 11:05 -10.82759 34.57141 35939 ft 440 kts 194°
2026-04-17 11:06 -10.88716 34.55700 35941 ft 439 kts 194°
2026-04-17 11:06 -10.94667 34.54260 35942 ft 439 kts 194°
2026-04-17 11:07 -11.00566 34.52833 35942 ft 439 kts 194°
2026-04-17 11:07 -11.06516 34.51392 35944 ft 438 kts 194°
2026-04-17 11:08 -11.12435 34.49958 35949 ft 438 kts 194°
2026-04-17 11:08 -11.18372 34.48508 35954 ft 438 kts 195°
2026-04-17 11:09 -11.24277 34.46926 35955 ft 438 kts 195°
2026-04-17 11:09 -11.30143 34.45331 35957 ft 439 kts 195°
2026-04-17 11:10 -11.38987 34.42958 35961 ft 439 kts 195°
2026-04-17 11:10 -11.44922 34.41427 35960 ft 439 kts 194°
2026-04-17 11:11 -11.50867 34.39942 35966 ft 439 kts 194°
2026-04-17 11:11 -11.56785 34.38459 35965 ft 439 kts 194°
2026-04-17 11:12 -11.62719 34.36963 35970 ft 438 kts 194°
2026-04-17 11:12 -11.68644 34.35465 35973 ft 438 kts 194°
2026-04-17 11:13 -11.74537 34.33974 35979 ft 439 kts 194°
2026-04-17 11:13 -11.80484 34.32469 35979 ft 439 kts 194°
2026-04-17 11:14 -11.86432 34.30963 35981 ft 439 kts 194°
2026-04-17 11:14 -11.92332 34.29469 35985 ft 439 kts 194°
2026-04-17 11:15 -11.98294 34.27958 35505 ft 445 kts 194°
2026-04-17 11:15 -12.01304 34.27195 34927 ft 444 kts 194°
2026-04-17 11:15 -12.04304 34.26434 34306 ft 444 kts 194°
2026-04-17 11:16 -12.07309 34.25672 33734 ft 443 kts 193°
2026-04-17 11:16 -12.10295 34.24915 33198 ft 440 kts 193°
2026-04-17 11:16 -12.13222 34.24172 32718 ft 436 kts 193°
2026-04-17 11:16 -12.16158 34.23427 32240 ft 432 kts 193°
2026-04-17 11:17 -12.19075 34.22687 31774 ft 429 kts 193°
2026-04-17 11:17 -12.21964 34.21953 31319 ft 425 kts 193°
2026-04-17 11:17 -12.24837 34.21223 30865 ft 422 kts 193°
2026-04-17 11:17 -12.27688 34.20499 30404 ft 419 kts 193°
2026-04-17 11:18 -12.30478 34.19790 29935 ft 417 kts 193°
2026-04-17 11:18 -12.33290 34.19076 29419 ft 414 kts 193°
2026-04-17 11:18 -12.36079 34.18367 28924 ft 410 kts 193°
2026-04-17 11:18 -12.38845 34.17664 28449 ft 407 kts 193°
2026-04-17 11:19 -12.41583 34.16968 27989 ft 403 kts 193°
2026-04-17 11:19 -12.44306 34.16276 27533 ft 401 kts 194°
2026-04-17 11:19 -12.47005 34.15590 27060 ft 398 kts 194°
2026-04-17 11:19 -12.49690 34.14906 26612 ft 396 kts 194°
2026-04-17 11:20 -12.52327 34.14235 26172 ft 394 kts 194°
2026-04-17 11:20 -12.54986 34.13558 25705 ft 393 kts 194°
2026-04-17 11:20 -12.57651 34.12880 25178 ft 394 kts 194°
2026-04-17 11:20 -12.60312 34.12202 24710 ft 394 kts 195°
2026-04-17 11:21 -12.62972 34.11524 24249 ft 393 kts 195°
2026-04-17 11:21 -12.65633 34.10846 23785 ft 393 kts 195°
2026-04-17 11:21 -12.68292 34.10169 23287 ft 393 kts 195°
2026-04-17 11:21 -12.70912 34.09500 22796 ft 391 kts 195°
2026-04-17 11:22 -12.73554 34.08827 22334 ft 389 kts 195°
2026-04-17 11:22 -12.76182 34.08157 21889 ft 386 kts 195°
2026-04-17 11:22 -12.78795 34.07490 21448 ft 384 kts 195°
2026-04-17 11:22 -12.81384 34.06830 21008 ft 382 kts 195°
2026-04-17 11:23 -12.83931 34.06180 20560 ft 381 kts 195°
2026-04-17 11:23 -12.86509 34.05522 20115 ft 380 kts 195°
2026-04-17 11:23 -12.89069 34.04868 19666 ft 379 kts 194°
2026-04-17 11:23 -12.91632 34.04213 19228 ft 378 kts 194°
2026-04-17 11:24 -12.94182 34.03561 18781 ft 377 kts 194°
2026-04-17 11:24 -12.96734 34.02910 18344 ft 377 kts 194°
2026-04-17 11:24 -12.99280 34.02259 17842 ft 376 kts 194°
2026-04-17 11:24 -13.01790 34.01496 17456 ft 372 kts 199°
2026-04-17 11:25 -13.03401 34.00893 17230 ft 369 kts 201°
2026-04-17 11:25 -13.06556 33.99618 16741 ft 364 kts 202°
2026-04-17 11:25 -13.08142 33.98966 16464 ft 363 kts 202°
2026-04-17 11:25 -13.10461 33.98020 16032 ft 362 kts 202°
2026-04-17 11:26 -13.12803 33.97077 15662 ft 359 kts 201°
2026-04-17 11:26 -13.15128 33.96150 15284 ft 357 kts 201°
2026-04-17 11:26 -13.17454 33.95231 14877 ft 356 kts 201°
2026-04-17 11:26 -13.19760 33.94323 14538 ft 353 kts 201°
2026-04-17 11:27 -13.22057 33.93421 14124 ft 353 kts 201°
2026-04-17 11:27 -13.24348 33.92521 13773 ft 350 kts 201°
2026-04-17 11:27 -13.26588 33.91643 13419 ft 347 kts 201°
2026-04-17 11:27 -13.28844 33.90757 12992 ft 347 kts 201°
2026-04-17 11:28 -13.31095 33.89873 12657 ft 343 kts 201°
2026-04-17 11:28 -13.33323 33.88999 12298 ft 341 kts 201°
2026-04-17 11:28 -13.35545 33.88126 11912 ft 340 kts 201°
2026-04-17 11:28 -13.37749 33.87260 11571 ft 337 kts 201°
2026-04-17 11:29 -13.39930 33.86403 11291 ft 332 kts 201°
2026-04-17 11:29 -13.42063 33.85565 11220 ft 321 kts 201°
2026-04-17 11:29 -13.44101 33.84764 11084 ft 312 kts 201°
2026-04-17 11:29 -13.46099 33.83979 11009 ft 303 kts 201°
2026-04-17 11:30 -13.47902 33.82943 10836 ft 295 kts 223°
2026-04-17 11:30 -13.49248 33.81380 10612 ft 291 kts 233°
2026-04-17 11:30 -13.50467 33.79722 10322 ft 290 kts 234°
2026-04-17 11:30 -13.51668 33.78061 10072 ft 287 kts 234°
2026-04-17 11:31 -13.52867 33.76416 9782 ft 287 kts 233°
2026-04-17 11:31 -13.54073 33.74781 9460 ft 287 kts 233°
2026-04-17 11:31 -13.55266 33.73175 9172 ft 285 kts 233°
2026-04-17 11:31 -13.56473 33.71554 8875 ft 285 kts 233°
2026-04-17 11:32 -13.57752 33.70002 8562 ft 284 kts 220°
2026-04-17 11:32 -13.59484 33.69075 8321 ft 279 kts 193°
2026-04-17 11:32 -13.61383 33.68900 8226 ft 269 kts 179°
2026-04-17 11:32 -13.63229 33.68904 8124 ft 261 kts 178°
2026-04-17 11:33 -13.65026 33.68910 8040 ft 254 kts 179°
2026-04-17 11:33 -13.66791 33.68907 7873 ft 252 kts 179°
2026-04-17 11:33 -13.68536 33.68902 7633 ft 250 kts 179°
2026-04-17 11:33 -13.70263 33.68935 7394 ft 247 kts 168°
2026-04-17 11:34 -13.71783 33.69652 7161 ft 239 kts 139°
2026-04-17 11:34 -13.72965 33.70772 7085 ft 221 kts 131°
2026-04-17 11:34 -13.73950 33.71928 6666 ft 221 kts 122°
2026-04-17 11:34 -13.74596 33.73354 6315 ft 212 kts 96°
2026-04-17 11:35 -13.74330 33.74641 6593 ft 171 kts 50°
2026-04-17 11:35 -13.73377 33.75215 6506 ft 160 kts 11°
2026-04-17 11:35 -13.72267 33.75174 6105 ft 168 kts 354°
2026-04-17 11:35 -13.71136 33.74734 5716 ft 177 kts 330°
2026-04-17 11:36 -13.70239 33.73860 5343 ft 179 kts 314°
2026-04-17 11:36 -13.69387 33.72843 5436 ft 183 kts 314°
2026-04-17 11:36 -13.68845 33.71732 5425 ft 172 kts 272°
2026-04-17 11:36 -13.69189 33.70619 5198 ft 161 kts 230°
2026-04-17 11:37 -13.70079 33.69936 4928 ft 164 kts 196°
2026-04-17 11:37 -13.71137 33.70025 4648 ft 153 kts 139°
2026-04-17 11:37 -13.72070 33.70737 4931 ft 180 kts 142°
2026-04-17 11:37 -13.73055 33.71398 5024 ft 167 kts 142°
2026-04-17 11:38 -13.74013 33.72137 5014 ft 179 kts 131°
2026-04-17 11:38 -13.74829 33.73052 4877 ft 168 kts 127°
2026-04-17 11:38 -13.75576 33.73984 4668 ft 174 kts 126°
2026-04-17 11:38 -13.76361 33.74966 4491 ft 176 kts 128°
2026-04-17 11:39 -13.77146 33.75913 4290 ft 173 kts 128°
2026-04-17 11:39 -13.77928 33.76877 4083 ft 171 kts 129°
2026-04-17 11:39 -13.78626 33.77726 4031 ft 133 kts 131°
2026-04-17 11:39 -13.78892 33.78043 4028 ft 23 kts 130°
2026-04-17 11:40 -13.78938 33.78127 4028 ft 7 kts 90°
2026-04-17 11:40 -13.78937 33.78136 4028 ft 0 kts 82°
2026-04-17 11:40 -13.78936 33.78142 4028 ft 1 kts 76°
2026-04-17 11:40 -13.78935 33.78145 4028 ft 1 kts 73°
2026-04-17 11:41 -13.78932 33.78152 4028 ft 1 kts 67°
2026-04-17 11:41 -13.78928 33.78159 4028 ft 0 kts 55°
2026-04-17 11:41 -13.78925 33.78162 4028 ft 1 kts 52°
2026-04-17 11:41 -13.78922 33.78166 4028 ft 0 kts 49°
2026-04-17 11:43 -13.78725 33.78397 4030 ft 0 kts 309°